,,,PA_Meas_PMT16A,,PR_Meas_QMR101_102,,RH_Meas_QMH101,,SR_Meas_QMS101,,TA_Meas_QMH101,,GenWind,,GenWind,
date,time,status,PA,status,PR,status,RH,status,SR,status,TA,status,DirAvg,status,SpdAvg,
2012-06-21, 00:00:04,VALID,1004.86,VALID,0,VALID,93.6674,VALID,0,VALID,23.6823,VALID,346,VALID,0.5,
2012-06-21, 00:01:04,VALID,1004.85,VALID,0,VALID,93.6216,VALID,0,VALID,23.7017,VALID,346,VALID,0.556641,
2012-06-21, 00:02:04,VALID,1004.86,VALID,0,VALID,93.5072,VALID,0,VALID,23.7017,VALID,346,VALID,0.7125,
2012-06-21, 00:03:04,VALID,1004.88,VALID,0,VALID,93.5835,VALID,0.0815089,VALID,23.7017,VALID,346,VALID,0.739453,
2012-06-21, 00:04:04,VALID,1004.86,VALID,0,VALID,93.6826,VALID,0,VALID,23.7601,VALID,346,VALID,0.715234,
2012-06-21, 00:05:04,VALID,1004.84,VALID,0,VALID,93.6292,VALID,0,VALID,23.7389,VALID,345,VALID,0.653516,
2012-06-21, 00:06:04,VALID,1004.85,VALID,0,VALID,93.6216,VALID,0,VALID,23.7796,VALID,345,VALID,0.644531,
2012-06-21, 00:07:04,VALID,1004.81,VALID,0,VALID,93.5606,VALID,0,VALID,23.7601,VALID,345,VALID,0.662891,
2012-06-21, 00:08:04,VALID,1004.83,VALID,0,VALID,93.5072,VALID,0,VALID,23.7601,VALID,346,VALID,0.716406,
2012-06-21, 00:09:04,VALID,1004.79,VALID,0,VALID,93.7055,VALID,0,VALID,23.8009,VALID,344,VALID,0.979688,
2012-06-21, 00:10:04,VALID,1004.79,VALID,0,VALID,93.6674,VALID,0,VALID,23.8398,VALID,357,VALID,1.25195,
2012-06-21, 00:11:04,VALID,1004.78,VALID,0,VALID,93.469,VALID,0,VALID,23.8593,VALID,349,VALID,1.05117,
2012-06-21, 00:12:04,VALID,1004.79,VALID,0,VALID,93.2783,VALID,0,VALID,23.9195,VALID,347,VALID,1.1793,
2012-06-21, 00:13:04,VALID,1004.75,VALID,0,VALID,93.1105,VALID,0,VALID,23.8982,VALID,351,VALID,0.894531,
2012-06-21, 00:14:04,VALID,1004.71,VALID,0,VALID,93.0342,VALID,0,VALID,23.9159,VALID,354,VALID,0.417188,
2012-06-21, 00:15:04,VALID,1004.69,VALID,0,VALID,93.0037,VALID,0,VALID,23.9761,VALID,346,VALID,0.114453,
2012-06-21, 00:16:04,VALID,1004.64,VALID,0,VALID,92.9655,VALID,0,VALID,24.0168,VALID,345,VALID,0.448438,
2012-06-21, 00:17:04,VALID,1004.62,VALID,0,VALID,92.9961,VALID,0,VALID,23.9937,VALID,10,VALID,0.273438,
2012-06-21, 00:18:04,VALID,1004.62,VALID,0,VALID,92.9579,VALID,0,VALID,24.0539,VALID,10,VALID,0.0347656,
2012-06-21, 00:19:04,VALID,1004.59,VALID,0,VALID,92.9884,VALID,0,VALID,24.0734,VALID,347,VALID,0.935156,
2012-06-21, 00:20:04,VALID,1004.59,VALID,0,VALID,92.9579,VALID,0,VALID,24.1105,VALID,353,VALID,0.703906,
2012-06-21, 00:21:04,VALID,1004.57,VALID,0,VALID,92.8664,VALID,0,VALID,24.1707,VALID,346,VALID,0.582812,
2012-06-21, 00:22:04,VALID,1004.56,VALID,0,VALID,92.7748,VALID,0,VALID,24.2097,VALID,353,VALID,0.742188,
2012-06-21, 00:23:04,VALID,1004.56,VALID,0,VALID,92.729,VALID,0,VALID,24.2291,VALID,344,VALID,0.692578,
2012-06-21, 00:24:04,VALID,1004.57,VALID,0,VALID,92.6528,VALID,0,VALID,24.2662,VALID,359,VALID,0.511719,
2012-06-21, 00:25:04,VALID,1004.54,VALID,0,VALID,92.5688,VALID,0,VALID,24.307,VALID,359,VALID,0.392188,
2012-06-21, 00:26:04,VALID,1004.54,VALID,0,VALID,92.4849,VALID,0,VALID,24.3265,VALID,359,VALID,0.316406,
2012-06-21, 00:27:04,VALID,1004.53,VALID,0,VALID,92.2789,VALID,0,VALID,24.3265,VALID,359,VALID,0.533594,
2012-06-21, 00:28:04,VALID,1004.54,VALID,0,VALID,92.2027,VALID,0,VALID,24.307,VALID,358,VALID,0.450391,
2012-06-21, 00:29:04,VALID,1004.5,VALID,0,VALID,92.1645,VALID,0,VALID,24.3265,VALID,358,VALID,0.491016,
2012-06-21, 00:30:04,VALID,1004.52,VALID,0,VALID,92.1645,VALID,0,VALID,24.3265,VALID,355,VALID,0.461328,
2012-06-21, 00:31:04,VALID,1004.49,VALID,0,VALID,92.2637,VALID,0,VALID,24.3459,VALID,347,VALID,0.446484,
2012-06-21, 00:32:05,VALID,1004.49,VALID,0,VALID,92.2179,VALID,0,VALID,24.3654,VALID,347,VALID,0.428516,
2012-06-21, 00:33:05,VALID,1004.5,VALID,0,VALID,92.0882,VALID,0,VALID,24.3654,VALID,347,VALID,0.431641,
2012-06-21, 00:34:05,VALID,1004.48,VALID,0,VALID,92.1035,VALID,0,VALID,24.3654,VALID,347,VALID,0.230469,
2012-06-21, 00:35:05,VALID,1004.46,VALID,0,VALID,92.1035,VALID,0,VALID,24.3459,VALID,347,VALID,0.403125,
2012-06-21, 00:36:05,VALID,1004.47,VALID,0,VALID,91.9738,VALID,0,VALID,24.2857,VALID,347,VALID,0.518359,
2012-06-21, 00:37:05,VALID,1004.5,VALID,0,VALID,92.1035,VALID,0,VALID,24.3283,VALID,9,VALID,0.592578,
2012-06-21, 00:38:05,VALID,1004.45,VALID,0,VALID,92.073,VALID,0,VALID,24.2875,VALID,9,VALID,0.600781,
2012-06-21, 00:39:05,VALID,1004.5,VALID,0,VALID,92.1874,VALID,0,VALID,24.2486,VALID,9,VALID,0.537109,
2012-06-21, 00:40:05,VALID,1004.49,VALID,0,VALID,92.3934,VALID,0,VALID,24.2486,VALID,9,VALID,0.552344,
2012-06-21, 00:41:05,VALID,1004.51,VALID,0,VALID,92.5078,VALID,0,VALID,24.1884,VALID,9,VALID,0.455078,
2012-06-21, 00:42:05,VALID,1004.47,VALID,0,VALID,92.6451,VALID,0,VALID,24.2078,VALID,9,VALID,0.435156,
2012-06-21, 00:43:05,VALID,1004.52,VALID,0,VALID,92.6909,VALID,0,VALID,24.2097,VALID,8,VALID,0.473047,
2012-06-21, 00:44:05,VALID,1004.49,VALID,0,VALID,92.7901,VALID,0,VALID,24.2097,VALID,8,VALID,0.437891,
2012-06-21, 00:45:05,VALID,1004.52,VALID,0,VALID,92.8358,VALID,0,VALID,24.2097,VALID,8,VALID,0.440625,
2012-06-21, 00:46:05,VALID,1004.52,VALID,0,VALID,92.9045,VALID,0,VALID,24.1884,VALID,8,VALID,0.415625,
2012-06-21, 00:47:05,VALID,1004.55,VALID,0,VALID,92.9274,VALID,0,VALID,24.2097,VALID,8,VALID,0.351172,
2012-06-21, 00:48:05,VALID,1004.56,VALID,0,VALID,92.935,VALID,0,VALID,24.2097,VALID,8,VALID,0.408203,
2012-06-21, 00:49:05,VALID,1004.58,VALID,0,VALID,92.9426,VALID,0,VALID,24.2097,VALID,8,VALID,0.567187,
2012-06-21, 00:50:05,VALID,1004.61,VALID,0,VALID,92.9426,VALID,0,VALID,24.1902,VALID,8,VALID,0.480859,
2012-06-21, 00:51:05,VALID,1004.61,VALID,0,VALID,93.0113,VALID,0,VALID,24.1707,VALID,8,VALID,0.558594,
2012-06-21, 00:52:05,VALID,1004.59,VALID,0,VALID,93.0571,VALID,0,VALID,24.1513,VALID,8,VALID,0.530859,
2012-06-21, 00:53:05,VALID,1004.6,VALID,0,VALID,93.08,VALID,0,VALID,24.192,VALID,8,VALID,0.417578,
2012-06-21, 00:54:05,VALID,1004.62,VALID,0,VALID,93.0952,VALID,0,VALID,24.1707,VALID,8,VALID,0.395312,
2012-06-21, 00:55:05,VALID,1004.62,VALID,0,VALID,93.1334,VALID,0,VALID,24.1087,VALID,8,VALID,0.421094,
2012-06-21, 00:56:05,VALID,1004.62,VALID,0,VALID,93.1486,VALID,0,VALID,24.13,VALID,8,VALID,0.376172,
2012-06-21, 00:57:05,VALID,1004.59,VALID,0,VALID,93.1715,VALID,0,VALID,24.13,VALID,8,VALID,0.359766,
2012-06-21, 00:58:05,VALID,1004.6,VALID,0,VALID,93.202,VALID,0,VALID,24.13,VALID,8,VALID,0.514453,
2012-06-21, 00:59:05,VALID,1004.58,VALID,0,VALID,93.2478,VALID,0,VALID,24.1105,VALID,8,VALID,0.470313,
2012-06-21, 01:00:05,VALID,1004.62,VALID,0,VALID,93.2478,VALID,0,VALID,24.1105,VALID,8,VALID,0.534375,
2012-06-21, 01:01:05,VALID,1004.61,VALID,0,VALID,93.2325,VALID,0,VALID,24.091,VALID,8,VALID,0.528516,
2012-06-21, 01:02:05,VALID,1004.63,VALID,0,VALID,93.2783,VALID,0,VALID,24.091,VALID,8,VALID,0.494531,
2012-06-21, 01:03:05,VALID,1004.65,VALID,0,VALID,93.3622,VALID,0,VALID,24.0716,VALID,8,VALID,0.471875,
2012-06-21, 01:04:05,VALID,1004.64,VALID,0,VALID,93.4004,VALID,0,VALID,24.1123,VALID,8,VALID,0.394922,
2012-06-21, 01:05:05,VALID,1004.64,VALID,0,VALID,93.4309,VALID,0,VALID,24.0716,VALID,8,VALID,0.455469,
2012-06-21, 01:06:05,VALID,1004.65,VALID,0,VALID,93.4614,VALID,0,VALID,24.091,VALID,8,VALID,0.460938,
2012-06-21, 01:07:05,VALID,1004.66,VALID,0,VALID,93.4843,VALID,0,VALID,24.0929,VALID,8,VALID,0.507031,
2012-06-21, 01:08:05,VALID,1004.63,VALID,0,VALID,93.5148,VALID,0,VALID,24.0929,VALID,8,VALID,0.504297,
2012-06-21, 01:09:05,VALID,1004.64,VALID,0,VALID,93.4919,VALID,0,VALID,24.0503,VALID,8,VALID,0.406641,
2012-06-21, 01:10:05,VALID,1004.64,VALID,0,VALID,93.5148,VALID,0,VALID,24.0929,VALID,8,VALID,0.353906,
2012-06-21, 01:11:05,VALID,1004.67,VALID,0,VALID,93.5301,VALID,0,VALID,24.0716,VALID,8,VALID,0.343359,
2012-06-21, 01:12:05,VALID,1004.69,VALID,0,VALID,93.5224,VALID,0,VALID,24.0716,VALID,8,VALID,0.235547,
2012-06-21, 01:13:05,VALID,1004.7,VALID,0,VALID,93.5148,VALID,0,VALID,24.0716,VALID,8,VALID,0.255469,
2012-06-21, 01:14:05,VALID,1004.72,VALID,0,VALID,93.5453,VALID,0,VALID,24.0521,VALID,8,VALID,0,
2012-06-21, 01:15:05,VALID,1004.74,VALID,0,VALID,93.5606,VALID,0.0815089,VALID,24.0308,VALID,8,VALID,0,
2012-06-21, 01:16:05,VALID,1004.75,VALID,0,VALID,93.5606,VALID,0,VALID,24.0716,VALID,8,VALID,0,
2012-06-21, 01:17:05,VALID,1004.74,VALID,0,VALID,93.5453,VALID,0,VALID,24.0114,VALID,8,VALID,0,
2012-06-21, 01:18:05,VALID,1004.74,VALID,0,VALID,93.553,VALID,0.0815089,VALID,24.0521,VALID,8,VALID,0,
2012-06-21, 01:19:05,VALID,1004.75,VALID,0,VALID,93.5682,VALID,0.0815089,VALID,24.0326,VALID,8,VALID,0.499219,
2012-06-21, 01:20:05,VALID,1004.76,VALID,0,VALID,93.5682,VALID,0.0815089,VALID,24.0326,VALID,8,VALID,0.535156,
2012-06-21, 01:21:05,VALID,1004.75,VALID,0,VALID,93.5835,VALID,0.0815089,VALID,24.0326,VALID,8,VALID,0.478906,
2012-06-21, 01:22:05,VALID,1004.79,VALID,0,VALID,93.6064,VALID,0.0815089,VALID,24.0326,VALID,8,VALID,0.573438,
2012-06-21, 01:23:05,VALID,1004.8,VALID,0,VALID,93.5453,VALID,0,VALID,23.9937,VALID,8,VALID,0.622266,
2012-06-21, 01:24:05,VALID,1004.83,VALID,0,VALID,93.6064,VALID,0,VALID,23.9548,VALID,8,VALID,0.4625,
2012-06-21, 01:25:05,VALID,1004.84,VALID,0,VALID,93.675,VALID,0,VALID,23.9761,VALID,2,VALID,0.739844,
2012-06-21, 01:26:05,VALID,1004.83,VALID,0,VALID,93.7284,VALID,0,VALID,23.9742,VALID,355,VALID,0.707812,
2012-06-21, 01:27:05,VALID,1004.84,VALID,0,VALID,93.7284,VALID,0,VALID,23.9955,VALID,355,VALID,0.577344,
2012-06-21, 01:28:05,VALID,1004.82,VALID,0,VALID,93.6292,VALID,0,VALID,23.9761,VALID,354,VALID,0.607031,
2012-06-21, 01:29:05,VALID,1004.82,VALID,0,VALID,93.5835,VALID,0,VALID,23.9548,VALID,354,VALID,0.539844,
2012-06-21, 01:30:05,VALID,1004.8,VALID,0,VALID,93.5148,VALID,0,VALID,23.9353,VALID,339,VALID,0.434375,
2012-06-21, 01:31:05,VALID,1004.81,VALID,0,VALID,93.5377,VALID,0,VALID,23.9371,VALID,339,VALID,0.321875,
2012-06-21, 01:32:05,VALID,1004.8,VALID,0,VALID,93.5453,VALID,0,VALID,23.8982,VALID,339,VALID,0.394531,
2012-06-21, 01:33:05,VALID,1004.78,VALID,0,VALID,93.553,VALID,0,VALID,23.8769,VALID,340,VALID,0.572266,
2012-06-21, 01:34:05,VALID,1004.77,VALID,0,VALID,93.469,VALID,0,VALID,23.8787,VALID,357,VALID,0.574609,
2012-06-21, 01:35:05,VALID,1004.76,VALID,0,VALID,93.5682,VALID,0,VALID,23.838,VALID,357,VALID,0.423438,
2012-06-21, 01:36:05,VALID,1004.74,VALID,0,VALID,93.6598,VALID,0,VALID,23.8982,VALID,357,VALID,0.389844,
2012-06-21, 01:37:05,VALID,1004.75,VALID,0,VALID,93.7055,VALID,0,VALID,23.8787,VALID,357,VALID,0.601953,
2012-06-21, 01:38:05,VALID,1004.72,VALID,0,VALID,93.6979,VALID,0,VALID,23.8787,VALID,352,VALID,0.567969,
2012-06-21, 01:39:05,VALID,1004.69,VALID,0,VALID,93.6979,VALID,0,VALID,23.8769,VALID,337,VALID,0.628516,
2012-06-21, 01:40:05,VALID,1004.7,VALID,0,VALID,93.675,VALID,0,VALID,23.8769,VALID,346,VALID,0.46875,
2012-06-21, 01:41:05,VALID,1004.67,VALID,0,VALID,93.6598,VALID,0,VALID,23.8769,VALID,346,VALID,0.430859,
2012-06-21, 01:42:05,VALID,1004.65,VALID,0,VALID,93.5453,VALID,0,VALID,23.8787,VALID,346,VALID,0.433984,
2012-06-21, 01:43:05,VALID,1004.64,VALID,0,VALID,93.4996,VALID,0,VALID,23.8769,VALID,346,VALID,0.335938,
2012-06-21, 01:44:05,VALID,1004.63,VALID,0,VALID,93.4309,VALID,0,VALID,23.8593,VALID,346,VALID,0.327344,
2012-06-21, 01:45:05,VALID,1004.62,VALID,0,VALID,93.4156,VALID,0,VALID,23.8398,VALID,346,VALID,0.398828,
2012-06-21, 01:46:05,VALID,1004.61,VALID,0,VALID,93.347,VALID,0,VALID,23.8203,VALID,346,VALID,0.425,
2012-06-21, 01:47:05,VALID,1004.63,VALID,0,VALID,93.4233,VALID,0,VALID,23.7796,VALID,346,VALID,0.439063,
2012-06-21, 01:48:05,VALID,1004.61,VALID,0,VALID,93.3851,VALID,0,VALID,23.8009,VALID,346,VALID,0.410156,
2012-06-21, 01:49:05,VALID,1004.63,VALID,0,VALID,93.4004,VALID,0,VALID,23.7814,VALID,346,VALID,0.353516,
2012-06-21, 01:50:05,VALID,1004.62,VALID,0,VALID,93.4614,VALID,0,VALID,23.7619,VALID,345,VALID,0.507422,
2012-06-21, 01:51:05,VALID,1004.62,VALID,0,VALID,93.5072,VALID,0,VALID,23.7425,VALID,339,VALID,0.665234,
2012-06-21, 01:52:05,VALID,1004.63,VALID,0,VALID,93.5148,VALID,0,VALID,23.7212,VALID,340,VALID,0.446484,
2012-06-21, 01:53:05,VALID,1004.65,VALID,0,VALID,93.5835,VALID,0,VALID,23.7407,VALID,340,VALID,0.490625,
2012-06-21, 01:54:05,VALID,1004.64,VALID,0,VALID,93.5224,VALID,0,VALID,23.7814,VALID,341,VALID,0.425391,
2012-06-21, 01:55:05,VALID,1004.66,VALID,0,VALID,93.4767,VALID,0,VALID,23.7796,VALID,341,VALID,0.341406,
2012-06-21, 01:56:05,VALID,1004.65,VALID,0,VALID,93.4004,VALID,0,VALID,23.8009,VALID,341,VALID,0.465234,
2012-06-21, 01:57:05,VALID,1004.66,VALID,0,VALID,93.469,VALID,0,VALID,23.7796,VALID,340,VALID,0.549609,
2012-06-21, 01:58:05,VALID,1004.64,VALID,0,VALID,93.3699,VALID,0,VALID,23.8185,VALID,343,VALID,0.469531,
2012-06-21, 01:59:05,VALID,1004.64,VALID,0,VALID,93.3317,VALID,0,VALID,23.8982,VALID,344,VALID,0.706641,
2012-06-21, 02:00:05,VALID,1004.64,VALID,0,VALID,93.2249,VALID,0,VALID,23.9566,VALID,336,VALID,0.540234,
2012-06-21, 02:01:05,VALID,1004.63,VALID,0,VALID,93.0266,VALID,0,VALID,24.015,VALID,337,VALID,0.763281,
2012-06-21, 02:02:05,VALID,1004.62,VALID,0,VALID,92.6756,VALID,0,VALID,24.0734,VALID,338,VALID,0.833984,
2012-06-21, 02:03:05,VALID,1004.58,VALID,0,VALID,92.2713,VALID,0,VALID,24.1707,VALID,348,VALID,0.65,
2012-06-21, 02:04:05,VALID,1004.55,VALID,0,VALID,91.8441,VALID,0,VALID,24.2273,VALID,349,VALID,0.641406,
2012-06-21, 02:05:05,VALID,1004.54,VALID,0,VALID,91.3864,VALID,0,VALID,24.307,VALID,343,VALID,0.568359,
2012-06-21, 02:06:05,VALID,1004.52,VALID,0,VALID,91.0736,VALID,0,VALID,24.3654,VALID,329,VALID,0.635156,
2012-06-21, 02:07:05,VALID,1004.49,VALID,0,VALID,90.7303,VALID,0,VALID,24.3849,VALID,333,VALID,0.621484,
2012-06-21, 02:08:05,VALID,1004.49,VALID,0,VALID,90.4251,VALID,0,VALID,24.4238,VALID,286,VALID,0.645703,
2012-06-21, 02:09:05,VALID,1004.49,VALID,0,VALID,90.1581,VALID,0,VALID,24.4433,VALID,348,VALID,0.695703,
2012-06-21, 02:10:05,VALID,1004.5,VALID,0,VALID,90.0055,VALID,0,VALID,24.4628,VALID,348,VALID,0.610937,
2012-06-21, 02:11:05,VALID,1004.5,VALID,0,VALID,89.8682,VALID,0,VALID,24.4609,VALID,348,VALID,0.719922,
2012-06-21, 02:12:05,VALID,1004.51,VALID,0,VALID,89.7919,VALID,0,VALID,24.4822,VALID,334,VALID,0.580078,
2012-06-21, 02:13:05,VALID,1004.53,VALID,0,VALID,89.708,VALID,0,VALID,24.5017,VALID,344,VALID,0.497266,
2012-06-21, 02:14:05,VALID,1004.52,VALID,0,VALID,89.5859,VALID,0,VALID,24.5212,VALID,348,VALID,0.86875,
2012-06-21, 02:15:05,VALID,1004.53,VALID,0,VALID,89.4639,VALID,0,VALID,24.5406,VALID,346,VALID,0.667969,
2012-06-21, 02:16:05,VALID,1004.49,VALID,0,VALID,89.3571,VALID,0,VALID,24.5814,VALID,345,VALID,0.788672,
2012-06-21, 02:17:05,VALID,1004.51,VALID,0,VALID,89.235,VALID,0,VALID,24.5796,VALID,344,VALID,0.674219,
2012-06-21, 02:18:05,VALID,1004.5,VALID,0,VALID,89.0367,VALID,0,VALID,24.599,VALID,348,VALID,0.623047,
2012-06-21, 02:19:05,VALID,1004.53,VALID,0,VALID,88.9604,VALID,0,VALID,24.599,VALID,340,VALID,0.537891,
2012-06-21, 02:20:05,VALID,1004.52,VALID,0,VALID,88.8078,VALID,0,VALID,24.6204,VALID,338,VALID,0.54375,
2012-06-21, 02:21:05,VALID,1004.51,VALID,0,VALID,88.7239,VALID,0,VALID,24.599,VALID,343,VALID,0.530078,
2012-06-21, 02:22:05,VALID,1004.54,VALID,0,VALID,88.4874,VALID,0,VALID,24.6398,VALID,343,VALID,1.18164,
2012-06-21, 02:23:05,VALID,1004.53,VALID,0,VALID,88.3043,VALID,0,VALID,24.6788,VALID,351,VALID,0.741016,
2012-06-21, 02:24:05,VALID,1004.52,VALID,0,VALID,88.1365,VALID,0,VALID,24.6769,VALID,349,VALID,0.637891,
2012-06-21, 02:25:05,VALID,1004.53,VALID,0,VALID,88.1288,VALID,0,VALID,24.6964,VALID,349,VALID,0.592188,
2012-06-21, 02:26:05,VALID,1004.55,VALID,0,VALID,88.0296,VALID,0,VALID,24.6964,VALID,348,VALID,0.739844,
2012-06-21, 02:27:05,VALID,1004.57,VALID,0,VALID,87.9,VALID,0,VALID,24.7159,VALID,346,VALID,0.8125,
2012-06-21, 02:28:05,VALID,1004.6,VALID,0,VALID,87.8923,VALID,0,VALID,24.714,VALID,346,VALID,0.691016,
2012-06-21, 02:29:05,VALID,1004.64,VALID,0,VALID,87.8923,VALID,0,VALID,24.7353,VALID,344,VALID,0.73125,
2012-06-21, 02:30:05,VALID,1004.6,VALID,0,VALID,87.9991,VALID,0,VALID,24.7353,VALID,344,VALID,0.569141,
2012-06-21, 02:31:05,VALID,1004.62,VALID,0,VALID,87.9839,VALID,0,VALID,24.7353,VALID,347,VALID,0.721875,
2012-06-21, 02:32:05,VALID,1004.63,VALID,0,VALID,87.9305,VALID,0,VALID,24.7548,VALID,347,VALID,0.657422,
2012-06-21, 02:33:05,VALID,1004.61,VALID,0,VALID,87.9152,VALID,0,VALID,24.7548,VALID,346,VALID,0.572266,
2012-06-21, 02:34:05,VALID,1004.63,VALID,0,VALID,87.9534,VALID,0,VALID,24.7743,VALID,347,VALID,0.643359,
2012-06-21, 02:35:05,VALID,1004.66,VALID,0,VALID,88.0144,VALID,0,VALID,24.7956,VALID,347,VALID,0.513672,
2012-06-21, 02:36:05,VALID,1004.67,VALID,0,VALID,88.0831,VALID,0,VALID,24.7956,VALID,347,VALID,0.605078,
2012-06-21, 02:37:05,VALID,1004.66,VALID,0,VALID,88.0525,VALID,0,VALID,24.7743,VALID,343,VALID,0.826563,
2012-06-21, 02:38:05,VALID,1004.64,VALID,0,VALID,88.1365,VALID,0,VALID,24.7743,VALID,349,VALID,0.740625,
2012-06-21, 02:39:05,VALID,1004.67,VALID,0,VALID,87.9228,VALID,0,VALID,24.7529,VALID,347,VALID,0.683203,
2012-06-21, 02:40:05,VALID,1004.69,VALID,0,VALID,87.755,VALID,0,VALID,24.8113,VALID,347,VALID,0.596875,
2012-06-21, 02:41:05,VALID,1004.67,VALID,0,VALID,87.6101,VALID,0,VALID,24.8308,VALID,342,VALID,0.460547,
2012-06-21, 02:42:05,VALID,1004.66,VALID,0,VALID,87.2744,VALID,0,VALID,24.8911,VALID,345,VALID,0.965625,
2012-06-21, 02:43:05,VALID,1004.67,VALID,0,VALID,87.015,VALID,0,VALID,24.9495,VALID,337,VALID,0.86875,
2012-06-21, 02:44:05,VALID,1004.64,VALID,0,VALID,86.809,VALID,0,VALID,24.9866,VALID,355,VALID,0.585938,
2012-06-21, 02:45:05,VALID,1004.64,VALID,0,VALID,86.6412,VALID,0.0815089,VALID,25.0255,VALID,351,VALID,0.679688,
2012-06-21, 02:46:05,VALID,1004.65,VALID,0,VALID,86.4123,VALID,0,VALID,25.045,VALID,354,VALID,0.761719,
2012-06-21, 02:47:05,VALID,1004.64,VALID,0,VALID,86.3208,VALID,0,VALID,25.1034,VALID,354,VALID,0.508594,
2012-06-21, 02:48:05,VALID,1004.64,VALID,0,VALID,86.4734,VALID,0.0815089,VALID,25.0839,VALID,353,VALID,0.454688,
2012-06-21, 02:49:05,VALID,1004.65,VALID,0,VALID,86.5725,VALID,0,VALID,25.082,VALID,347,VALID,0.364844,
2012-06-21, 02:50:05,VALID,1004.65,VALID,0,VALID,86.7785,VALID,0,VALID,25.1034,VALID,347,VALID,0.492969,
2012-06-21, 02:51:05,VALID,1004.66,VALID,0,VALID,86.8624,VALID,0,VALID,25.1442,VALID,347,VALID,0.5625,
2012-06-21, 02:52:05,VALID,1004.69,VALID,0,VALID,87.282,VALID,0,VALID,25.1229,VALID,347,VALID,0.403125,
2012-06-21, 02:53:05,VALID,1004.69,VALID,0,VALID,87.5795,VALID,0.0815089,VALID,25.0644,VALID,347,VALID,0.390625,
2012-06-21, 02:54:05,VALID,1004.73,VALID,0,VALID,87.7169,VALID,0,VALID,25.0255,VALID,347,VALID,0.530859,
2012-06-21, 02:55:05,VALID,1004.71,VALID,0,VALID,87.6253,VALID,0,VALID,24.9866,VALID,343,VALID,0.769531,
2012-06-21, 02:56:05,VALID,1004.76,VALID,0,VALID,87.8084,VALID,0,VALID,25.0274,VALID,335,VALID,0.736328,
2012-06-21, 02:57:05,VALID,1004.74,VALID,0,VALID,87.9839,VALID,0,VALID,25.006,VALID,343,VALID,0.623047,
2012-06-21, 02:58:05,VALID,1004.71,VALID,0,VALID,87.8694,VALID,0,VALID,24.9866,VALID,344,VALID,0.607031,
2012-06-21, 02:59:05,VALID,1004.75,VALID,0,VALID,88.1517,VALID,0,VALID,24.9476,VALID,343,VALID,0.565234,
2012-06-21, 03:00:05,VALID,1004.74,VALID,0,VALID,88.2051,VALID,0,VALID,24.969,VALID,346,VALID,0.775781,
2012-06-21, 03:01:05,VALID,1004.74,VALID,0,VALID,88.2661,VALID,0,VALID,24.9495,VALID,345,VALID,0.450781,
2012-06-21, 03:02:05,VALID,1004.72,VALID,0,VALID,88.1136,VALID,0,VALID,24.9282,VALID,352,VALID,0.939844,
2012-06-21, 03:03:05,VALID,1004.72,VALID,0,VALID,88.0754,VALID,0,VALID,24.9495,VALID,329,VALID,0.271094,
2012-06-21, 03:04:05,VALID,1004.69,VALID,0,VALID,88.0144,VALID,0,VALID,24.9476,VALID,353,VALID,0.326172,
2012-06-21, 03:05:05,VALID,1004.7,VALID,0,VALID,87.8008,VALID,0,VALID,24.969,VALID,352,VALID,0.641797,
2012-06-21, 03:06:05,VALID,1004.64,VALID,0,VALID,87.6635,VALID,0.0815089,VALID,24.969,VALID,333,VALID,1.03672,
2012-06-21, 03:07:05,VALID,1004.65,VALID,0,VALID,87.5567,VALID,0,VALID,25.0079,VALID,284,VALID,0.265625,
2012-06-21, 03:08:05,VALID,1004.65,VALID,0,VALID,87.3659,VALID,0,VALID,25.006,VALID,351,VALID,0.945313,
2012-06-21, 03:09:05,VALID,1004.62,VALID,0,VALID,87.3507,VALID,0,VALID,25.0255,VALID,347,VALID,0.898828,
2012-06-21, 03:10:05,VALID,1004.6,VALID,0,VALID,87.1523,VALID,0,VALID,25.0236,VALID,348,VALID,0.533203,
2012-06-21, 03:11:04,VALID,1004.61,VALID,0,VALID,87.0455,VALID,0,VALID,25.0644,VALID,346,VALID,1.0207,
2012-06-21, 03:12:04,VALID,1004.58,VALID,0,VALID,86.9616,VALID,0,VALID,25.0839,VALID,340,VALID,1.07148,
2012-06-21, 03:13:04,VALID,1004.55,VALID,0,VALID,86.8624,VALID,0,VALID,25.1248,VALID,342,VALID,0.9625,
2012-06-21, 03:14:04,VALID,1004.53,VALID,0,VALID,86.7861,VALID,0,VALID,25.1229,VALID,348,VALID,0.974609,
2012-06-21, 03:15:04,VALID,1004.5,VALID,0,VALID,86.6641,VALID,0,VALID,25.1229,VALID,334,VALID,1.02578,
2012-06-21, 03:16:04,VALID,1004.5,VALID,0,VALID,86.542,VALID,0,VALID,25.1637,VALID,340,VALID,0.719141,
2012-06-21, 03:17:04,VALID,1004.47,VALID,0,VALID,86.4505,VALID,0,VALID,25.1637,VALID,357,VALID,0.794141,
2012-06-21, 03:18:04,VALID,1004.5,VALID,0,VALID,86.4428,VALID,0,VALID,25.1618,VALID,346,VALID,0.803906,
2012-06-21, 03:19:04,VALID,1004.49,VALID,0,VALID,86.4505,VALID,0,VALID,25.1832,VALID,322,VALID,0.855859,
2012-06-21, 03:20:04,VALID,1004.52,VALID,0,VALID,86.4123,VALID,0,VALID,25.1618,VALID,320,VALID,0.609375,
2012-06-21, 03:21:04,VALID,1004.57,VALID,0,VALID,86.4123,VALID,0,VALID,25.1832,VALID,339,VALID,0.692187,
2012-06-21, 03:22:04,VALID,1004.56,VALID,0,VALID,86.3666,VALID,0,VALID,25.1832,VALID,341,VALID,0.733594,
2012-06-21, 03:23:04,VALID,1004.55,VALID,0,VALID,86.3208,VALID,0,VALID,25.1832,VALID,339,VALID,0.937891,
2012-06-21, 03:24:04,VALID,1004.57,VALID,0,VALID,86.2064,VALID,0,VALID,25.1618,VALID,346,VALID,1.05078,
2012-06-21, 03:25:04,VALID,1004.57,VALID,0,VALID,86.1758,VALID,0,VALID,25.1832,VALID,341,VALID,0.917188,
2012-06-21, 03:26:04,VALID,1004.58,VALID,0,VALID,86.1529,VALID,0,VALID,25.1813,VALID,344,VALID,0.5375,
2012-06-21, 03:27:04,VALID,1004.57,VALID,0,VALID,86.2521,VALID,0,VALID,25.2027,VALID,352,VALID,0.764453,
2012-06-21, 03:28:04,VALID,1004.58,VALID,0,VALID,86.1453,VALID,0,VALID,25.2027,VALID,347,VALID,0.644922,
2012-06-21, 03:29:04,VALID,1004.59,VALID,0,VALID,85.9699,VALID,0,VALID,25.1813,VALID,347,VALID,1.0875,
2012-06-21, 03:30:04,VALID,1004.61,VALID,0,VALID,86.1301,VALID,0,VALID,25.2027,VALID,343,VALID,0.474609,
2012-06-21, 03:31:04,VALID,1004.62,VALID,0,VALID,86.1224,VALID,0,VALID,25.1832,VALID,341,VALID,0.973828,
2012-06-21, 03:32:04,VALID,1004.66,VALID,0,VALID,86.3437,VALID,0,VALID,25.2027,VALID,343,VALID,0.530859,
2012-06-21, 03:33:04,VALID,1004.7,VALID,0,VALID,86.2826,VALID,0,VALID,25.1832,VALID,340,VALID,0.696484,
2012-06-21, 03:34:04,VALID,1004.71,VALID,0,VALID,86.481,VALID,0,VALID,25.1618,VALID,342,VALID,0.530469,
2012-06-21, 03:35:04,VALID,1004.76,VALID,0,VALID,86.4581,VALID,0,VALID,25.1229,VALID,343,VALID,0.603516,
2012-06-21, 03:36:04,VALID,1004.76,VALID,0,VALID,86.3589,VALID,0,VALID,25.1637,VALID,344,VALID,0.576563,
2012-06-21, 03:37:04,VALID,1004.8,VALID,0,VALID,86.3971,VALID,0,VALID,25.1442,VALID,344,VALID,0.323828,
2012-06-21, 03:38:04,VALID,1004.81,VALID,0,VALID,86.3513,VALID,0,VALID,25.1442,VALID,345,VALID,0.300781,
2012-06-21, 03:39:04,VALID,1004.81,VALID,0,VALID,86.5725,VALID,0,VALID,25.1229,VALID,345,VALID,0,
2012-06-21, 03:40:04,VALID,1004.81,VALID,0,VALID,86.7251,VALID,0,VALID,25.1637,VALID,345,VALID,0.447656,
2012-06-21, 03:41:04,VALID,1004.81,VALID,0,VALID,86.4352,VALID,0,VALID,25.1442,VALID,351,VALID,0.494922,
2012-06-21, 03:42:04,VALID,1004.79,VALID,0,VALID,86.2369,VALID,0,VALID,25.1229,VALID,344,VALID,0.607031,
2012-06-21, 03:43:04,VALID,1004.79,VALID,0,VALID,86.4581,VALID,0,VALID,25.1637,VALID,344,VALID,0.552344,
2012-06-21, 03:44:04,VALID,1004.77,VALID,0,VALID,86.2979,VALID,0,VALID,25.1442,VALID,344,VALID,0.813672,
2012-06-21, 03:45:04,VALID,1004.74,VALID,0,VALID,86.1987,VALID,0,VALID,25.1229,VALID,345,VALID,0.786328,